STARLINK-34303, 64168

Orbit data source: Space-Track

STARLINK-34303, 64168 is a payload satellite owned by SpaceX/Seattle (US) in SSO that was launched on Tue, 27 May 2025 UTC via an FALCON 9 launch vehicle from the Air Force Western Test Range (AFWTR). Payload-class satellites include a variety of spacecraft equipped with specific instruments for various scientific and technological missions. These include communications satellites like Starlink; space stations such as the ISS; scientific satellites like the Hubble; Earth observation satellites from companies like Planet Labs, Umbra, and HawkEye 360; GPS; miniature CubeSats for education and research; and military/defense satellites.

Loading next visibility...
Identifier
64168, 2025-112Y
Orbit
SSO
Country
Flag of USUS
Related business
Manufacturer
SpaceX/Seattle
Mission
Operational Commercial Communications
Bus & Motor
STARLINK V2MO, Unknown motor
Mass
575 kg wet, ~530 kg dry
Launch date (UTC)
2025-05-27 (1 year ago)
Launch vehicle
FALCON 9
Launch site
Air Force Western Test Range (AFWTR)
Object type
Payload
Rocket body
Debris
Shape & HBR
Box + 2 Pan, 17.7 m
Radar Cross Section
36.964 m², Large (>1 m²)

Expand to show TLE details & history
Last TLE update: 18 hours ago

TLE from 18 hours ago
0 STARLINK-34303
1 64168U 25112Y   26197.62855183  .00001749  00000-0  12508-3 0  9999
2 64168  97.2821 246.5462 0001022 145.2296 214.8999 15.05658861 62712
Epoch: 2026-07-16T15:05Z
TLE epoch observation values (Epoch: 2026-07-16T15:05:06.878Z)
Latitude
0.00004°
Longitude
85.80026°
Altitude
553.139 km
Speed
7.585 km/s
True Right ascension
16h 26m 11s
True Declination
0° 00' 00"
Sunlit
Object was in full shadow at epoch
Visualization orbit readout
Latitude
Unknown
Longitude
Unknown
Altitude
Unknown
Speed
Unknown
Apparent Right ascension
Unknown
Apparent Declination
Unknown
Sunlit
N/A
Visualization observer readout
Local Sidereal Time
21:19:18
Azimuth
Unknown
Elevation
Unknown
Doppler factor
Unknown
Orbital elements
Apogee altitude
547.171 km
Perigee altitude
545.756 km
Semi-major axis
6,924.601 km
Eccentricity
0.0001
Inclination
97.2821°
RAAN
246.5462°
Arg. of periapsis
145.2296°
True anomaly
214.8932°
Mean anomaly
214.8999°
Eccentric anomaly
214.89655°
Mean motion
3.76661 °/min
Orbital period
95.58 mins
BSTAR
0.00012508
Loading maneuver chart data...
Computing Atmospheric mass density...
Loading historical data...
Loading historical data...
Loading historical data...
Loading historical data...
Loading historical data...
Loading historical data...
Loading historical data...

Documentation

Showing up to 5 results
|